Clermont County, Batavia, OH

5:42 AM EST on December 13, 2019 (GMT -0500)
Clermont County, Batavia

Weather History for KI69 - October, 2019

Change the Weather History Date:

Thursday, October 3, 2019

  Actual Average (KLUK) Record (KLUK)
Temperature  
Mean Temperature 80 °F -  
Max Temperature 92 °F 72 °F 90 °F (1959)
Min Temperature 66 °F 48 °F 30 °F (1974)
Cooling Degree Days 14    
Growing Degree Days 30 (Base 50)    
Moisture  
Dew Point 64 °F    
Average Humidity 64    
Maximum Humidity 87    
Minimum Humidity 39    
Precipitation  
Precipitation 0.00 in - - ()
Sea Level Pressure  
Sea Level Pressure 30.02 in    
Wind  
Wind Speed 5 mph (West)    
Max Wind Speed 16 mph    
Max Gust Speed 22 mph    
Visibility 10 miles    
Events      
Averages and records for this station are not official NWS values.
T = Trace of Precipitation, MM = Missing Value Source: NWS Daily Summary

Daily Weather History Graph

Daily Weather History Graph

Search for Another Location

Airport or City:

Astronomy

Oct. 03, 2019 Rise Set
Actual Time 7:34 AM EDT 7:16 PM EDT
Civil Twilight 7:07 AM EDT 7:43 PM EDT
Nautical Twilight 6:36 AM EDT 8:14 PM EDT
Astronomical Twilight 6:05 AM EDT 8:45 PM EDT
Moon 1:02 PM EDT (10/3) 10:57 PM EDT (10/3)
Length of Visible Light 12h 35m
Length of Day
11h 42m
Waxing Crescent, 29% of the Moon is Illuminated
Oct 3
Waxing Crescent
Oct 5
First Quarter
Oct 13
Full
Oct 21
Last Quarter
Oct 27
New

Hourly Weather History & Observations

Time (EDT) Temp. Heat Index Dew Point Humidity Pressure Visibility Wind Dir Wind Speed Gust Speed Precip Events Conditions
12:15 AM 72.5 °F - 64.6 °F 76% 29.96 in 10.0 mi Calm Calm - N/A   Clear
12:35 AM 73.0 °F - 64.4 °F 74% 29.96 in 10.0 mi Calm Calm - N/A   Clear
12:58 AM 72.7 °F - 64.0 °F 74% 29.96 in 10.0 mi Calm Calm - N/A   Clear
1:17 AM 73.6 °F - 63.7 °F 71% 29.97 in 10.0 mi Calm Calm - N/A   Clear
1:35 AM 72.5 °F - 63.9 °F 74% 29.97 in 10.0 mi Calm Calm - N/A   Clear
1:55 AM 69.3 °F - 64.4 °F 84% 29.98 in 10.0 mi Calm Calm - N/A   Clear
2:15 AM 69.3 °F - 64.6 °F 85% 29.98 in 10.0 mi Calm Calm - N/A   Clear
2:38 AM 69.4 °F - 64.9 °F 86% 29.98 in 10.0 mi Calm Calm - N/A   Clear
2:57 AM 69.4 °F - 64.4 °F 84% 29.97 in 10.0 mi Calm Calm - N/A   Clear
3:15 AM 70.3 °F - 63.7 °F 79% 29.97 in 10.0 mi SW 3.5 mph - N/A   Clear
3:35 AM 72.1 °F - 63.5 °F 74% 29.97 in 10.0 mi SW 5.8 mph - N/A   Clear
3:55 AM 73.6 °F - 63.5 °F 71% 29.97 in 10.0 mi SW 4.6 mph - N/A   Clear
4:18 AM 73.4 °F - 63.5 °F 71% 29.98 in 10.0 mi SW 5.8 mph - N/A   Clear
4:36 AM 71.6 °F - 63.5 °F 76% 29.98 in 10.0 mi SW 4.6 mph - N/A   Clear
4:55 AM 69.3 °F - 63.3 °F 81% 29.98 in 10.0 mi Calm Calm - N/A   Clear
4:56 AM 68.5 °F - 63.5 °F 84% 29.98 in 10.0 mi Calm Calm - N/A   Clear
5:15 AM 68.0 °F - 63.9 °F 87% 29.98 in 10.0 mi Calm Calm - N/A   Clear
5:35 AM 69.3 °F - 63.5 °F 82% 29.99 in 10.0 mi SW 3.5 mph - N/A   Clear
5:58 AM 71.4 °F - 63.1 °F 75% 29.99 in 10.0 mi SW 4.6 mph - N/A   Clear
6:16 AM 71.6 °F - 63.1 °F 75% 30.00 in 10.0 mi SW 4.6 mph - N/A   Clear
6:35 AM 70.2 °F - 63.0 °F 78% 30.00 in 10.0 mi SW 3.5 mph - N/A   Clear
6:55 AM 71.1 °F - 63.1 °F 76% 30.01 in 10.0 mi SW 4.6 mph - N/A   Clear
7:15 AM 71.2 °F - 63.0 °F 75% 30.01 in 10.0 mi SW 4.6 mph - N/A   Clear
7:38 AM 71.1 °F - 63.0 °F 75% 30.01 in 10.0 mi SW 3.5 mph - N/A   Clear
7:56 AM 71.4 °F - 63.0 °F 75% 30.01 in 10.0 mi SW 5.8 mph - N/A   Clear
8:15 AM 72.1 °F - 63.0 °F 73% 30.01 in 10.0 mi SW 5.8 mph - N/A   Clear
8:36 AM 73.4 °F - 63.3 °F 71% 30.01 in 10.0 mi SW 8.1 mph - N/A   Clear
8:55 AM 74.1 °F - 63.5 °F 69% 30.01 in 10.0 mi SW 8.1 mph - N/A   Clear
9:18 AM 75.6 °F - 63.9 °F 67% 30.01 in 10.0 mi SW 10.4 mph - N/A   Clear
9:36 AM 77.0 °F - 64.0 °F 64% 30.01 in 10.0 mi SW 9.2 mph - N/A   Clear
9:55 AM 78.3 °F - 64.0 °F 61% 30.01 in 10.0 mi WSW 8.1 mph - N/A   Clear
10:15 AM 79.7 °F - 64.2 °F 59% 30.01 in 10.0 mi WSW 9.2 mph - N/A   Clear
10:35 AM 80.6 °F 82.3 °F 64.8 °F 58% 30.01 in 10.0 mi WSW 12.7 mph 16.1 mph N/A   Clear
10:40 AM 81.1 °F 82.8 °F 64.8 °F 57% 30.01 in 10.0 mi WSW 9.2 mph - N/A   Clear
10:58 AM 82.2 °F 84.0 °F 65.3 °F 56% 30.02 in 10.0 mi WSW 8.1 mph - N/A   Clear
11:16 AM 84.0 °F 86.3 °F 66.0 °F 55% 30.01 in 10.0 mi West 10.4 mph - N/A   Clear
11:35 AM 85.8 °F 88.2 °F 66.6 °F 52% 30.02 in 10.0 mi West 9.2 mph - N/A   Clear
11:55 AM 86.2 °F 88.4 °F 66.4 °F 51% 30.02 in 10.0 mi WNW 8.1 mph - N/A   Clear
12:19 PM 87.1 °F 89.9 °F 66.7 °F 51% 30.01 in 10.0 mi WNW 8.1 mph - N/A   Clear
12:38 PM 88.3 °F 91.2 °F 66.7 °F 49% 30.01 in 10.0 mi West 10.4 mph 18.4 mph N/A   Clear
12:56 PM 89.1 °F 91.7 °F 66.6 °F 47% 30.01 in 10.0 mi WNW 12.7 mph 17.3 mph N/A   Clear
1:19 PM 89.1 °F 91.7 °F 66.2 °F 47% 30.01 in 10.0 mi West 15.0 mph 19.6 mph N/A   Clear
1:37 PM 89.4 °F 91.9 °F 65.8 °F 46% 30.01 in 10.0 mi WSW 12.7 mph 21.9 mph N/A   Clear
1:55 PM 91.2 °F 94.1 °F 66.7 °F 44% 30.00 in 10.0 mi WSW 12.7 mph 17.3 mph N/A   Scattered Clouds
2:15 PM 90.5 °F 92.5 °F 64.9 °F 43% 29.99 in 10.0 mi West 9.2 mph 21.9 mph N/A   Scattered Clouds
2:35 PM 92.1 °F 93.6 °F 64.2 °F 39% 29.99 in 10.0 mi WSW 13.8 mph 19.6 mph N/A   Scattered Clouds
2:59 PM 89.8 °F 90.4 °F 62.8 °F 40% 29.99 in 10.0 mi West 8.1 mph 18.4 mph N/A   Scattered Clouds
3:17 PM 92.7 °F 94.4 °F 64.0 °F 39% 29.99 in 10.0 mi West 15.0 mph 18.4 mph N/A   Scattered Clouds
3:35 PM 91.4 °F 93.2 °F 64.4 °F 41% 29.99 in 10.0 mi West 16.1 mph 20.7 mph N/A   Scattered Clouds
3:55 PM 90.5 °F 92.9 °F 66.0 °F 44% 29.99 in 10.0 mi WNW 11.5 mph - N/A   Mostly Cloudy
4:15 PM 89.6 °F 92.2 °F 66.4 °F 46% 29.99 in 10.0 mi WNW 12.7 mph 18.4 mph N/A   Overcast
4:39 PM 88.3 °F 91.2 °F 67.1 °F 49% 29.99 in 10.0 mi NW 12.7 mph 18.4 mph N/A   Mostly Cloudy
4:57 PM 88.5 °F 91.6 °F 67.3 °F 49% 29.99 in 10.0 mi NW 11.5 mph 17.3 mph N/A   Mostly Cloudy
5:15 PM 88.9 °F 92.2 °F 67.5 °F 49% 30.00 in 10.0 mi WNW 11.5 mph 16.1 mph N/A   Scattered Clouds
5:35 PM 86.5 °F 90.0 °F 68.2 °F 54% 30.00 in 10.0 mi NW 13.8 mph 20.7 mph N/A   Clear
5:55 PM 85.5 °F 88.8 °F 68.2 °F 56% 30.01 in 10.0 mi NW 12.7 mph 19.6 mph N/A   Clear
5:56 PM 85.5 °F 88.8 °F 68.2 °F 56% 30.01 in 10.0 mi NW 16.1 mph 19.6 mph N/A   Clear
6:19 PM 83.8 °F 86.7 °F 67.8 °F 58% 30.02 in 10.0 mi NW 15.0 mph 19.6 mph N/A   Clear
6:37 PM 82.8 °F 85.5 °F 67.5 °F 60% 30.03 in 10.0 mi NW 12.7 mph 18.4 mph N/A   Clear
6:55 PM 82.0 °F 84.5 °F 67.1 °F 60% 30.03 in 10.0 mi NW 8.1 mph - N/A   Clear
7:15 PM 81.0 °F 83.2 °F 66.4 °F 61% 30.04 in 10.0 mi WNW 6.9 mph - N/A   Clear
7:35 PM 80.2 °F 81.9 °F 64.4 °F 58% 30.05 in 10.0 mi NW 6.9 mph - N/A   Clear
7:59 PM 79.2 °F - 64.2 °F 60% 30.05 in 10.0 mi NW 6.9 mph - N/A   Clear
8:17 PM 78.3 °F - 63.7 °F 61% 30.06 in 10.0 mi NW 12.7 mph 16.1 mph N/A   Clear
8:35 PM 77.0 °F - 63.1 °F 62% 30.07 in 10.0 mi NNW 9.2 mph - N/A   Clear
8:55 PM 75.7 °F - 62.8 °F 64% 30.08 in 10.0 mi NNW 9.2 mph - N/A   Clear
9:15 PM 75.2 °F - 62.6 °F 65% 30.09 in 10.0 mi NNW 10.4 mph 17.3 mph N/A   Clear
9:38 PM 73.8 °F - 61.9 °F 66% 30.09 in 10.0 mi North 8.1 mph - N/A   Clear
9:57 PM 72.5 °F - 61.0 °F 67% 30.10 in 10.0 mi NNW 9.2 mph - N/A   Clear
10:15 PM 71.6 °F - 60.1 °F 67% 30.11 in 10.0 mi NNW 8.1 mph - N/A   Clear
10:35 PM 70.2 °F - 59.2 °F 68% 30.11 in 10.0 mi NNW 6.9 mph - N/A   Clear
10:55 PM 68.9 °F - 59.0 °F 71% 30.12 in 10.0 mi NNW 6.9 mph - N/A   Clear
11:18 PM 68.4 °F - 58.6 °F 71% 30.13 in 10.0 mi NNW 6.9 mph - N/A   Clear
11:36 PM 67.6 °F - 57.6 °F 70% 30.13 in 10.0 mi NNW 6.9 mph - N/A   Clear
11:55 PM 66.9 °F - 57.0 °F 70% 30.13 in 10.0 mi NNW 5.8 mph - N/A   Clear